TimeHST,TemperatureF,Dew PointF,Humidity,Sea Level PressureIn,VisibilityMPH,Wind Direction,Wind SpeedMPH,Gust SpeedMPH,PrecipitationIn,Events,Conditions,WindDirDegrees,DateUTC
12:53 AM,72.0,64.9,78,30.01,10.0,Calm,Calm,-,N/A,,Clear,0,2013-03-12 10:53:00
1:53 AM,73.0,64.9,76,30.01,10.0,East,4.6,-,N/A,,Mostly Cloudy,100,2013-03-12 11:53:00
2:53 AM,73.0,66.0,79,29.97,10.0,Calm,Calm,-,N/A,,Partly Cloudy,0,2013-03-12 12:53:00
3:53 AM,72.0,66.0,81,29.97,10.0,ENE,3.5,-,N/A,,Mostly Cloudy,60,2013-03-12 13:53:00
4:53 AM,72.0,66.9,84,29.98,10.0,NE,4.6,-,N/A,,Overcast,50,2013-03-12 14:53:00
5:53 AM,72.0,66.0,81,29.98,10.0,NNE,3.5,-,N/A,,Mostly Cloudy,30,2013-03-12 15:53:00
6:53 AM,72.0,66.0,81,29.98,10.0,East,5.8,-,N/A,,Clear,100,2013-03-12 16:53:00
7:53 AM,72.0,66.0,81,30.02,10.0,Calm,Calm,-,N/A,,Mostly Cloudy,0,2013-03-12 17:53:00
8:53 AM,75.0,66.0,73,30.04,10.0,North,5.8,-,N/A,,Scattered Clouds,360,2013-03-12 18:53:00
9:53 AM,75.9,64.9,69,30.04,10.0,North,6.9,-,N/A,,Mostly Cloudy,360,2013-03-12 19:53:00
10:53 AM,77.0,66.0,69,30.04,10.0,North,8.1,-,N/A,,Mostly Cloudy,360,2013-03-12 20:53:00
11:53 AM,78.1,66.9,68,30.02,10.0,NNW,4.6,-,N/A,,Partly Cloudy,340,2013-03-12 21:53:00
12:53 PM,78.1,64.9,64,30.01,10.0,NNW,9.2,-,N/A,,Clear,340,2013-03-12 22:53:00
1:53 PM,79.0,64.9,62,30.00,10.0,WNW,9.2,-,N/A,,Clear,300,2013-03-12 23:53:00
2:53 PM,79.0,64.9,62,29.98,10.0,NNW,8.1,-,N/A,,Clear,330,2013-03-13 00:53:00
3:53 PM,79.0,66.0,64,29.97,10.0,NNW,8.1,-,N/A,,Clear,330,2013-03-13 01:53:00
4:53 PM,78.1,64.0,62,29.97,10.0,North,9.2,-,N/A,,Partly Cloudy,360,2013-03-13 02:53:00
5:53 PM,78.1,62.1,58,29.98,10.0,North,11.5,-,N/A,,Clear,360,2013-03-13 03:53:00
6:53 PM,75.9,63.0,64,30.00,10.0,North,10.4,-,N/A,,Mostly Cloudy,350,2013-03-13 04:53:00
7:53 PM,75.0,66.9,76,30.03,10.0,North,15.0,-,N/A,,Mostly Cloudy,350,2013-03-13 05:53:00
8:53 PM,73.0,66.9,81,30.04,10.0,North,11.5,-,N/A,,Clear,10,2013-03-13 06:53:00
9:53 PM,73.0,66.9,81,30.04,10.0,North,6.9,-,N/A,,Partly Cloudy,350,2013-03-13 07:53:00
10:53 PM,71.1,64.0,78,30.05,10.0,NE,6.9,-,N/A,,Clear,40,2013-03-13 08:53:00
11:53 PM,70.0,62.1,76,30.04,10.0,NE,5.8,-,N/A,,Clear,40,2013-03-13 09:53:00